Погода в Уржаре

Погода в Уржаре : погода сейчас, прогноз погоды и архив. Всё, что Вы хотите узнать о погоде в Уржаре!

Поиск расширенной информации на нашем сайте:

Другие новости

Новости СМИ2

Главная страница сайта

Новости сайта

03.07.2017

Напоминаем, что на нашем специализированном сайте Метеоцентр.Азия вы можете получить высокодетализированные автоматические прогнозы погоды по пунктам России, СНГ и мира в авиационном формате (включающие направление и скорость ветра, видимость, явления погоды, количество и форму облачности, нижнюю и верхнюю границу облачности).


Погода в Уржаре - сегодня

Время (UTC), дата Ветер
(°,м/с) 
Видим.   Явления Облачность Т
(°С)
Тd
(°С)
f(%) Тe
(°С)
Pmin
(гПа)
dP
(гПа)
Po
(мм)
O2
(г/м3)
Тmin Tmax R s Состояние
почвы
18 14.10.17 тихо ()   н/о    ясно 
+1.8 -0.9 82 +2  1019.6  -0.2  720  288    +21.1       
21 14.10.17 тихо ()   н/о    ясно 
+1 -1.5 83 +1  1019.3  -0.4  720  289           
00 15.10.17 тихо ()   н/о    ясно 
-0.2 -2.9 82 -0  1020.3  0.7  720  291           
03 15.10.17 тихо ()   20000 м    6/0 верхняя 
[Ci fib]
+7.7 +1.1 63 +8  1020.1  1.4  758  297           
06 15.10.17 110 (В) 20000 м    9/0 средняя, верхняя 
[Ac und|Ci fib]
+18.1 +1.5 33 +20  1017.6  -0.3  721  272  -0.5         
09 15.10.17 110 (В) 20000 м    9/0 средняя, верхняя 
[Ac und|Ci fib]
+18.9 -1.3 25 +20  1016.3  -1.1  720  271           
12 15.10.17 тихо ()   20000 м    10/0 средняя 
[Ac und]
+14.1 +2 44 +14    0.6        270     
15 15.10.17 тихо ()   н/о    10/0 средняя 
[Ac und]
+10.9 +6.8 76 +11  1018.8  0.3  721  278    +19.3       
18 15.10.17 тихо ()   н/о    9/0 средняя 
[Ac und]
+9.4 +6.2 80 +9  1019.2  0.1  721  280    +19.3       
21 15.10.17 тихо ()   н/о    3/0 средняя 
[Ac trans]
+4.5 +2.3 86 +5  1019  -1.2  720  285           
00 16.10.17 тихо ()   н/о    8/0 средняя, верхняя 
[Ac und|Ci fib]
+5.3 +3.4 88 +5  1018.1  -0.7  719  284           
03 16.10.17 тихо ()   20000 м    ясно 
+9.6 +2.2 60 +10  1017.7  0.5  720  280           
06 16.10.17 тихо ()   20000 м    ясно 
+19.4 +8 48 +19  1014.2  -1.4  719  269  +4.1         
09 16.10.17 тихо ()   20000 м    ясно 
+21.5 +7.5 40 +22  1012.4  -1.3  718  267           
12 16.10.17 тихо ()   20000 м    3/0 верхняя 
[Ci fib]
+15.1 +7.9 62 +15  1014.2  0.5  718  273           
15 16.10.17 тихо ()   н/о    ясно 
+5.1 +1.1 75 +5  1018.2  1.7  719  284    +21.8       
18 16.10.17 тихо ()   н/о    ясно 
+2.4 -0.3 82 +2  1018.9  0.1  720  287    +21.8       
21 16.10.17 тихо ()   н/о    ясно 
+0.6 -1.1 88 +1  1019.1  -0.2  719  289           
00 17.10.17 тихо ()   н/о    ясно 
+0.2 -1.2 90 1019.3  0.1  719  290           
03 17.10.17 тихо ()   20000 м    3/0 верхняя 
[Ci fib]
+7 +2.2 71 +7  1018.8  720  283           
06 17.10.17 тихо ()   20000 м    6/0 верхняя 
[Ci fib]
+18.8 +1.7 32 +19  1015.6  -0.8  720  271  +0         
09 17.10.17 тихо ()   20000 м    4/0 верхняя 
[Ci fib]
+21.2 +1.4 27 +21  1012.7  -2.3  718  268           
12 17.10.17 тихо ()   20000 м    8/0 средняя, верхняя 
[Ac trans|Ci fib]
+16.6 +2.6 39 +17  1013.7  0.1  718  272           
15 17.10.17 тихо ()   н/о    6/0 средняя 
[Ac trans]
+6.3 +1.7 72 +6  1016.1  0.2  718  282    +21.7       
18 17.10.17 тихо ()   н/о    6/0 средняя 
[Ac trans]
+3.8 +1.3 84 +4  1014.9  -1.6  717  285    +21.7       
Время (UTC), дата Ветер
(°,м/с) 
Видим.   Явления Облачность Т
(°С)
Тd
(°С)
f(%) Тe
(°С)
Pmin
(гПа)
dP
(гПа)
Po
(мм)
O2
(г/м3)
Тmin Tmax R s Состояние
почвы

Для получения пояснительной информации подведите курсор к названию столбца.

ПОГОДА в Уржаре - архив

Всё, что Вы хотите узнать о погоде в Уржаре - удобно и подробно!

Выберите нужную дату (начиная с 1 января 2015* года) и нажмите кнопку "Найти".
Будут отображены архивные сводки погоды по пункту Уржар, начиная с указанной даты.


Отображать данные в формате CSV (для использования в таблицах Excel)


Внимание! Наш архив погоды предназначен исключительно для личного некоммерческого использования в познавательных целях. Если Вам необходимы официальные справки о состоянии погоды (для производственных, юридических, коммерческих и т.п. целей), обращайтесь в органы Росгидромета.

*Примечание: данная дата относится к архиву по метеостанциям СССР (Россия, СНГ, Балтия).
Архив по метеостанциям Зарубежной Европы и Азии (кроме Китая) хранится 10 дней, по другим регионам земного шара (Китай, Африка, Америка, Австралия, Океания) - 1 день.

Уржар - район местоположения метеостанции


Название, широта, долгота, высота метеостанции:
Уржар 47.1°ш. 81.6°д. 491 м над ур. моря [Казахстан]

Дополнительная информация

В oтличие oт бoльшинства пoгoдных сайтoв мы публикуем пoдрoбную метеoинфoрмацию в детальнoм прoфессиoнальнoм фoрмате.

Характеристики температуры и влажнoсти вoздуха измеряются на высoте 2 м в тени вдали oт зданий и деревьев.
Скoрoсть ветра измеряется на высoте 10 м (на урoвне рoста челoвека скoрoсть ветра ниже в 1.5-2 раза). Если метеoстанция нахoдится в гoрoде или в лесу, тo скoрoсть ветра занижена на 2-4 м/с пo сравнению с oткрытым местoм. Скoрoсть ветра над акватoриями крупных рек и oзёр, а также на вершинах хoлмoв на 2-5 м/с выше, чем в oбычных услoвиях.
Атмoсфернoе давление в разных тoчках местнoсти мoжет значительнo oтличаться oт давления на метеoстанции, в зависимoсти oт услoвий рельефа (при пoдъёме на 10 м давление пoнижается примернo на 1 мм рт.ст.).